Location: Medlow Airstrip Trail, Medlow Bath NSW 2780, Australia
(33.6682°S, 150.3233°E)
Time: 12:36:14
(UTC+11:00)

Explorer 11/Cluster Stage 4 - Pass Details

Date: 23 September 2019
Orbit: 467 x 1259 km, 28.8° (Epoch: 13 October)

Event Time Altitude Azimuth Distance (km) Brightness Sun altitude
Rises 11:10:06 0° 278° (W) 3,264 9.7 54.9°
Reaches altitude 10° 11:12:25 10° 282° (WNW) 2,451 9.2 55.0°
Maximum altitude 11:18:16 57° 359° (N) 1,139 10.0 55.4°
Drops below altitude 10° 11:25:29 10° 76° (ENE) 3,003 9.9 55.7°
Sets 11:28:34 0° 79° (E) 4,054 10.4 55.8°
